Regional Weather Roundup
Issued by NWS

Home | Current Version | Previous Version | Text Only | Print | Product List | Glossary Off
Versions: 1 2 3 4 5 6 7 8 9 10 11 12 13 14 15 16 17 18 19 20 21 22 23 24 25 26 27 28 29 30 31 32 33 34 35 36 37 38 39 40 41 42 43 44 45 46 47 48 49 50

000
ASUS45 KTFX 041710
RWRMT
MONTANA REGIONAL WEATHER ROUNDUP
NATIONAL WEATHER SERVICE GREAT FALLS MT
1000 AM MST SUN DEC 04 2016

NOTE: "FAIR" INDICATES FEW OR NO CLOUDS BELOW 12000 FEET WITH NO
SIGNIFICANT WEATHER AND/OR OBSTRUCTIONS TO VISIBILITY.

MTZ001>007-043-041800-
WEST OF THE DIVIDE

CITY           SKY/WX    TMP DP  RH WIND       PRES   REMARKS
KALISPELL      LGT SNOW  34  32  92 CALM      29.63F VSB 1
MISSOULA       CLOUDY    34  32  92 S13       29.73F WCI  25
BUTTE          CLOUDY    30  18  60 SE5       29.73F
MULLAN PASS    SNOW      25  23  92 VRB7      29.61S VSB 1/4 WCI  17
ANACONDA         N/A     34  19  55 S16G24    29.72F WCI  23
DEER LODGE       N/A     34  21  60 SE13G22   29.72F WCI  25
EUREKA           N/A     36  28  75 SE6       29.62F WCI  31
HAMILTON         N/A     34  32  93 S9        29.75F WCI  26
LIBBY            N/A     32  32 100 NW5       29.64S VSB 3/4
PLAINS           N/A     36  32  85 MISG      29.72F
RONAN            N/A     38  27  65 CALM      29.74F
$$

MTZ008-052>055-041800-
SOUTHWEST MONTANA

CITY           SKY/WX    TMP DP  RH WIND       PRES   REMARKS
BOZEMAN        CLOUDY    34  21  59 VRB3      29.75F
DILLON         CLOUDY    30  20  66 SW6       29.78F WCI  24
W YELLOWSTONE  LGT SNOW  23  19  86 NW3G17    29.85F VSB 1
ENNIS          MOSUNNY   32  21  64 S22       29.82F WCI  19
THREE FORKS      N/A     36  36 100 CALM      29.77F
TWIN BRIDGES     N/A     31  15  51 N9        29.79F WCI  23
$$

MTZ009-010-012-014-046-048-049-054-041800-
EAST SLOPES AND CENTRAL MONTANA

CITY           SKY/WX    TMP DP  RH WIND       PRES   REMARKS
CUT BANK       MOSUNNY   32  26  78 W14       29.54F WCI  22
GREAT FALLS    CLOUDY    36  23  59 SW28G39   29.60F WCI  23
MALMSTROM AFB  CLOUDY    36  24  63 SW23G35   29.62F WCI  24
HELENA         CLOUDY    38  22  52 SW14      29.70F WCI  30
AUGUSTA        PTSUNNY   34  22  62 SW20G31   29.60F WCI  23
BOWMANS CRNR     N/A     31  24  75 SW23      29.60F WCI  18
CHOTEAU          N/A     37  23  56 SW21G28   29.59F WCI  27
CONRAD           N/A     35  29  79 S9        29.62F WCI  28
FAIRFIELD        N/A     35  22  59 S15G21    29.59F WCI  25
POWER            N/A     35  24  64 SW28G38   29.58F WCI  21
RAYNESFORD       N/A     38  20  48 SW31G40   29.61F WCI  25
ULM              N/A     37  23  56 W14G24    29.62F WCI  29
$$

MTZ011-013-016-021-045-047-050-051-041800-
NORTH CENTRAL MONTANA

CITY           SKY/WX    TMP DP  RH WIND       PRES   REMARKS
HAVRE          CLOUDY    39  24  55 SW14      29.60F WCI  31
LEWISTOWN      CLOUDY    35  18  49 SW13      29.65F WCI  26
N BAR RANCH      N/A     36  14  41 VRB3      29.67F
CHINOOK          N/A     28  21  74 E6        29.62F WCI  22
DENTON         PTSUNNY   32  21  63 S10G17    29.60F WCI  24
GEYSER         PTSUNNY   34  21  58 NW14      29.61F WCI  25
GRASS RANGE    CLOUDY    34  20  56 W2        29.62F
JUDITH GAP     PTSUNNY   33  17  52 SW15G24   29.65F WCI  22
ROY            PTSUNNY   40  17  40 MISG      29.64F
STANFORD         N/A     38  17  43 W15G24    29.61F WCI  29
WINIFRED       PTSUNNY   35  19  52 MISG      29.62F
$$

MTZ017>020-022>027-061-062-041800-
NORTHEAST MONTANA

CITY           SKY/WX    TMP DP  RH WIND       PRES   REMARKS
GLASGOW        SUNNY     31  25  78 SE5       29.68F
JORDAN           N/A     34  23  64 CALM      29.71F
SIDNEY         SUNNY     26  22  84 S8        29.76F WCI  18
WOLF POINT     SUNNY     28  23  81 CALM      29.73F
PLENTYWOOD       N/A     18  16  93 W5        29.70F
POPLAR           N/A     28  21  74 S3        29.74F
SCOBEY           N/A     25  14  62 CALM      29.68F
$$

MTZ028>42-056>058-041800-
SOUTHCENTRAL AND SOUTHEAST MONTANA

CITY           SKY/WX    TMP DP  RH WIND       PRES   REMARKS
BAKER          MOSUNNY   28  20  71 VRB3      29.77F
BILLINGS       CLOUDY    34  16  47 SW13      29.74F WCI  25
LIVINGSTON     CLOUDY    36  22  56 SW32G46   29.71F WCI  23
MILES CITY     SUNNY     33  21  61 SE5       29.76F
BIG TIMBER     MOSUNNY   39  19  45 W16G22    29.74F WCI  30
EKALAKA          N/A     33  19  56 SW7       29.77F WCI  27
FORSYTH          N/A     37  16  41 SW9       29.76F WCI  31
HARLOWTON        N/A     35  16  45 W14       29.69F WCI  26
LAUREL           N/A     35  12  38 SW5       29.75F
ROUNDUP          N/A     30  15  53 S7        29.66F WCI  23
$$

REGIONAL REPORTS...DAKOTAS

CITY           SKY/WX    TMP DP  RH WIND       PRES   REMARKS
WILLISTON      SUNNY     26  21  81 SW6       29.74F WCI  19
MINOT          CLOUDY    32  27  81 W15       29.70S WCI  22
DICKINSON      SUNNY     25  17  72 W14       29.73F WCI  13
BEACH            N/A     30  19  64 SW13      29.78S WCI  20
CROSBY           N/A     21  18  86 W3        29.73F
TIOGA            N/A     21  19  93 SW8       29.73S WCI  12
WATFORD CITY     N/A     23  19  86 SW10      29.75S WCI  12
BISMARCK       MOSUNNY   33  27  78 W13       29.77F WCI  24
GRAND FORKS    CLOUDY    32  27  81 W17       29.69S WCI  21
FARGO          CLOUDY    33  31  92 S10       29.72S WCI  25
BUFFALO SD       N/A     36  25  64 W17       29.73F WCI  26
RAPID CITY     SUNNY     42  19  39 W10       29.86F
$$

REGIONAL REPORTS...WYOMING/IDAHO/WASHINGTON

CITY           SKY/WX    TMP DP  RH WIND       PRES   REMARKS
GILLETTE       SUNNY     34  14  43 SW17      29.80F WCI  23
SHERIDAN       CLOUDY    37  19  48 CALM      29.78F
BUFFALO WY     PTSUNNY   36  11  35 S7        29.79F WCI  30
CODY           CLOUDY    37  21  52 SW12G21   29.79S WCI  29
YELLOWSTONE LA   N/A     20  16  84 VRB7      29.83F WCI  11
IDAHO FALLS    CLOUDY    34  23  64 S20G30    29.95F WCI  23
SALMON         CLOUDY    27  25  93 CALM      29.85S VSB 1
BOISE          LGT RAIN  41  34  76 E12       29.95F
SPOKANE        PTSUNNY   36  32  85 SW21      29.74F WCI  25
$$

REGIONAL REPORTS...ALBERTA

CITY           SKY/WX    TMP DP  RH WIND       PRES   REMARKS
EDMONTON       CLEAR     23  12  63 W12       29.62S WCI  12
CALGARY        LGT SNOW  25  21  86 N12       29.61R WCI  14
LETHBRIDGE     PTSUNNY   32  27  80 W3        29.54F
MEDICINE HAT   PTSUNNY   27  21  80 N6        29.57S WCI  20
WATERTON GATE    N/A     32  25  74 SW10        N/A  WCI  24
CARDSTON         N/A     34  23  64 NW10        N/A  WCI  26
MILK RIVER       N/A     34  25  69 W3          N/A
$$

REGIONAL REPORTS...SASKATCHEWAN

CITY           SKY/WX    TMP DP  RH WIND       PRES   REMARKS
SWIFT CURRENT  MOSUNNY   19  18  93 SW13      29.58S WCI   7
REGINA         MOSUNNY   19  19 100 SE7       29.67S WCI  10
SASKATOON      PTSUNNY   23  19  86 W5        29.66S
CYPRESS HILLS    N/A     23  18  80 S6          N/A  WCI  16
ROCKGLEN         N/A     23  19  86 SW7         N/A  WCI  15
ASSINIBOIA       N/A     25  14  63 SW10        N/A  WCI  15
$$



USA.gov is the U.S. government's official web portal to all federal, state and local government web resources and services.